rbcbanqueroyale.com alexa rank chart, rbcbanqueroyale.com alexa rank daily changes

rbcbanqueroyale.com alexa rank chart, rbcbanqueroyale.com alexa rank daily changes

rbcbanqueroyale.com
Actual rank:
35 919

RANK HISTORY

Date Rank Diff
2018/02/22 35 919 -5 192
2018/02/21 41 111 -11 739
2018/02/20 52 850 +5 825
2018/02/19 47 025 +5 199
2018/02/18 41 826 +4 353
2018/02/17 37 473 -6 133
2018/02/16 43 606 -2 562
2018/02/15 46 168 -2 698
2018/02/14 48 866 -11 282
2018/02/13 60 148 +17 935
2018/02/12 42 213 -8 092
2018/02/11 50 305 +11 849
2018/02/10 38 456 -832
2018/02/09 39 288 +620
2018/02/08 38 668 -9 051
2018/02/07 47 719 +6 520
2018/02/06 41 199 -7 274
2018/02/05 48 473 +15 133
2018/02/04 33 340 -530
2018/02/03 33 870 -5 370
2018/02/02 39 240 +1 173
2018/02/01 38 067 -2 552
2018/01/31 40 619 +119
2018/01/30 40 500 +464
2018/01/29 40 036 -94
2018/01/28 40 130 +32
2018/01/27 40 098 -318
2018/01/26 40 416 +403
2018/01/25 40 013 +446
2018/01/24 39 567 +519
2018/01/23 39 048 +440
2018/01/22 38 608 -119
2018/01/21 38 727 +284
2018/01/20 38 443 -99
2018/01/19 38 542 +75
2018/01/18 38 467 +321
2018/01/17 38 146 +300
2018/01/16 37 846 +419
2018/01/15 37 427 -233
2018/01/14 37 660 +43
2018/01/13 37 617 -80
2018/01/12 37 697 +51
2018/01/11 37 646 +75
2018/01/10 37 571 +394
2018/01/09 37 177 +67
2018/01/08 37 110 -25
2018/01/07 37 135 -167
2018/01/06 37 302 -223
2018/01/05 37 525 +186
2018/01/04 37 339 +257
2018/01/03 37 082 +475
2018/01/02 36 607 +299
2018/01/01 36 308 +132
2017/12/31 36 176 -76
2017/12/30 36 252 -414
2017/12/29 36 666 -56
2017/12/28 36 722 -250
2017/12/27 36 972 +473
2017/12/26 36 499 +391
2017/12/25 36 108 +64
2017/12/24 36 044

WIDGET FOR YOUR SITE

DOMAINS WITH THE NEAREST RANK

Domain Rank
shahrvand.ir 35 914
fapvidhd.com 35 915
politicalcompass.org 35 916
europebet.com 35 917
meiyingie.com 35 918
rbcbanqueroyale.com 35 919
aotter.net 35 920
viabtc.com 35 921
kansas.com 35 922
360daily.com 35 923
postcodelottery.co.uk 35 924

DOMAINS WITH THE NEAREST RANK BY TLD .com

Domain Rank
deadbydaylight.com 35 910
ouestfrance-immo.com 35 911
fapvidhd.com 35 915
europebet.com 35 917
meiyingie.com 35 918
rbcbanqueroyale.com 35 919
viabtc.com 35 921
kansas.com 35 922
360daily.com 35 923
humankinetics.com 35 925
eroticmonkey.com 35 929